Home > Weather > Stuhr > Past weeks

Flag for Germany Weather for the Past 2 Weeks in Stuhr, Lower Saxony, Germany

Now
52 °F

Scattered clouds.


Feels Like: 47 °F
Forecast: 41 / 59 °F
Wind: 15 mph from Northwest

Location: Bremen Airport

Current Time: May 3, 2016 at 3:27:52 PM

Latest Report: May 3, 2016 at 2:50 PM


Visibility: N/A

Pressure: 30.15 "Hg

Humidity: 67%

Dew Point: 41 °F

Location of StuhrLocation

Historic Weather in Stuhr — Graph

°F

Stuhr Temperature Yesterday

Maximum temperature yesterday: 66 °F (at 2:50 PM)
Minimum temperature yesterday: 36 °F (at 4:50 AM)
Average temperature yesterday: 53 °F

High & Low Weather Summary for the Past Weeks

 TemperatureHumidityPressure
High66 °F (May 2, 2:50 PM)100% (Apr 21, 4:20 AM)30.45 "Hg (Apr 21, 4:20 AM)
Low28 °F (Apr 25, 2:20 AM)37% (May 2, 4:20 PM)29.36 "Hg (Apr 26, 12:20 PM)
Average44 °F77%29.99 "Hg
* Reported Apr 18 1:20 PM — May 3 1:20 PM, Stuhr, Weather by CustomWeather, © 2016

Note: Actual official high and low records may vary slightly from our data, if they occured in-between our weather recording intervals... More about our weather records

Advertising

Stuhr Weather History for the Previous 24 Hours

Scroll right to see more
 ConditionsComfort  
Time TempWeatherWind HumidityBarometerVisibility
1:20 PM
Tue, May 3
50 °FSprinkles. Broken clouds.15 mph82%30.12 "HgN/A
12:50 PM54 °FBroken clouds.12 mph72%30.12 "HgN/A
12:20 PM54 °FBroken clouds.14 mph72%30.12 "HgN/A
11:50 AM52 °FBroken clouds.13 mph77%30.12 "HgN/A
11:20 AM52 °FBroken clouds.10 mph82%30.09 "HgN/A
10:50 AM50 °FBroken clouds.10 mph88%30.09 "HgN/A
10:20 AM48 °FBroken clouds.8 mph94%30.09 "HgN/A
9:50 AM48 °FLight rain. Partly sunny.7 mph94%30.09 "HgN/A
9:20 AM48 °FLight rain. Partly sunny.10 mph87%30.07 "HgN/A
8:50 AM48 °FLight rain. Overcast.14 mph87%30.07 "HgN/A
8:20 AM48 °FMore clouds than sun.16 mph87%30.04 "HgN/A
7:20 AM52 °FLight rain. Overcast.5 mph88%30.01 "HgN/A
6:50 AM50 °FLight rain. Overcast.5 mph88%30.01 "HgN/A
6:20 AM50 °FLight rain. Passing clouds.6 mph88%30.01 "HgN/A
5:50 AM50 °FPassing clouds.6 mph88%30.01 "HgN/A
5:20 AM50 °FClear.3 mph82%30.01 "Hg10 mi
4:20 AM50 °FClear.3 mph82%30.01 "Hg10 mi
3:20 AM46 °FClear.7 mph87%30.01 "Hg10 mi
2:50 AM46 °FClear.5 mph87%30.01 "Hg10 mi
2:20 AM48 °FClear.3 mph82%30.01 "Hg10 mi
1:50 AM48 °FClear.No wind82%30.04 "Hg10 mi
1:20 AM52 °FClear.2 mph72%30.04 "Hg10 mi
12:50 AM52 °FClear.2 mph72%30.04 "Hg10 mi
12:20 AM52 °FClear.2 mph72%30.04 "Hg10 mi
11:50 PM
Mon, May 2
52 °FClear.2 mph77%30.07 "Hg10 mi
11:20 PM52 °FPassing clouds.6 mph77%30.07 "HgN/A
10:50 PM55 °FClear.6 mph67%30.07 "Hg10 mi
10:20 PM52 °FClear.2 mph82%30.07 "Hg10 mi
9:50 PM54 °FSunny.3 mph77%30.07 "Hg10 mi
9:20 PM57 °FSunny.2 mph67%30.07 "Hg10 mi
8:50 PM61 °FSunny.2 mph52%30.09 "Hg10 mi
8:20 PM61 °FSunny.2 mph52%30.09 "Hg10 mi
7:50 PM61 °FSunny.5 mph55%30.09 "Hg10 mi
7:20 PM63 °FSunny.6 mph49%30.09 "Hg10 mi
6:50 PM64 °FPartly sunny.7 mph43%30.09 "HgN/A
6:20 PM64 °FPassing clouds.6 mph43%30.09 "HgN/A
5:50 PM66 °FPassing clouds.9 mph37%30.12 "HgN/A
5:20 PM66 °FPassing clouds.8 mph37%30.12 "HgN/A
4:50 PM66 °FPassing clouds.10 mph40%30.15 "HgN/A
4:20 PM66 °FPassing clouds.7 mph37%30.15 "HgN/A
3:50 PM66 °FSunny.10 mph40%30.15 "Hg10 mi
3:20 PM66 °FPassing clouds.9 mph46%30.18 "HgN/A
Weather by CustomWeather, © 2016

See weather overviewHow to use our weather pages